[[{"header":{"parameterUnit":"m.s-1","parameterCategory":2,"la1":30.2991,"la2":30.254,"lo1":-89.0895,"lo2":-89.0444,"dy":0.0017,"dx":0.0017,"nx":28,"ny":28,"refTime":"2025-03-25T21:00:00:Z","depth":"0","parameterNumber":2,"parameterNumberName":"U-component_of_CURRENTS"},"data":[0,0,0,0,0,0,0,0,0,0,0,0,0,0,0,0,0,0,0,0,0,0,0,0,0,0,0,0,0,0,0,0,0,0,0,0,0,0,0,0,0,0,0,0,0,0,0,0,0,0,0,0,0,0,0,0,0,0,-0.2297,-0.2296,0,-0.2221,-0.2219,-0.2218,-0.2124,-0.2123,-0.2123,-0.2122,-0.1943,-0.1939,-0.1935,0,0,0,0,0,0,0,0,0,0,0,0,0,-0.2288,-0.2289,-0.2297,-0.2296,-0.2296,-0.2221,-0.2219,-0.2218,-0.2124,-0.2123,-0.2122,-0.2121,-0.1944,-0.1939,-0.1935,0,0,0,0,0,0,0,0,0,0,0,0,0,-0.2254,-0.2289,-0.2297,-0.2245,-0.224,-0.2221,-0.2219,-0.2217,-0.2125,-0.2123,-0.2122,-0.2121,-0.1946,-0.194,-0.1934,-0.1925,0,0,-0.1916,-0.1914,0,0,0,0,0,0,0,0,-0.2257,-0.2254,-0.2253,-0.2249,-0.2243,-0.2186,-0.2151,-0.2116,-0.2125,-0.2162,-0.2122,-0.212,-0.202,-0.2008,-0.1989,-0.1917,-0.1909,-0.1916,-0.1912,-0.191,-0.1908,0,0,0,0,0,0,0,-0.2259,-0.2257,-0.226,-0.2253,-0.2247,-0.2201,-0.2195,-0.2144,-0.2093,-0.2159,-0.2153,-0.2155,-0.2015,-0.1995,-0.1984,-0.1906,-0.1916,-0.1911,-0.1907,-0.1905,-0.1822,-0.1824,0,0,0,0,0,0,-0.2287,-0.226,-0.2263,-0.2259,-0.2254,-0.2203,-0.2196,-0.2201,-0.2095,-0.2081,-0.2156,-0.2151,-0.2006,-0.1991,-0.1977,-0.1979,-0.191,-0.1904,-0.1901,-0.1821,-0.1823,-0.1824,0,0,0,0,0,0,-0.2287,-0.2288,-0.2266,-0.2262,-0.2256,-0.2206,-0.2211,-0.22,-0.2184,-0.2096,-0.2077,-0.2154,-0.2004,-0.1985,-0.1941,-0.1971,-0.1901,-0.1896,-0.1819,-0.1821,-0.1823,-0.1971,0,0,0,0,0,0,-0.2287,-0.2288,-0.2293,-0.2264,-0.2258,-0.2271,-0.2213,-0.22,-0.219,-0.2183,-0.2088,-0.2069,-0.2002,-0.195,-0.1935,-0.1961,-0.1891,-0.1818,-0.182,-0.1823,-0.1964,-0.1977,-0.1989,0,0,0,0,0,-0.2287,-0.2308,-0.2293,-0.2293,-0.2269,-0.2273,-0.2266,-0.2219,-0.2192,-0.2197,-0.213,-0.2073,-0.1955,-0.1947,-0.1928,-0.1954,-0.1816,-0.182,-0.1822,-0.1959,-0.1975,-0.1989,0,0,0,0,0,0,-0.2289,-0.2301,-0.2283,-0.2301,-0.2295,-0.226,-0.226,-0.2235,-0.2188,-0.2176,-0.2085,-0.2062,-0.2031,-0.1977,-0.197,-0.1938,-0.1879,-0.1878,-0.1988,-0.2003,-0.2015,-0.2008,-0.1887,0,0,0,0,0,-0.23,-0.2323,-0.2319,-0.2327,-0.2335,-0.2301,-0.2294,-0.2273,-0.2235,-0.2213,-0.215,-0.2083,-0.2031,-0.2005,-0.1945,-0.1933,-0.1883,-0.1938,-0.1951,-0.1962,-0.1945,-0.1916,-0.1924,-0.1834,-0.1834,-0.1834,0,0,-0.2298,-0.2309,-0.2317,-0.2331,-0.2319,-0.2337,-0.2292,-0.2301,-0.2302,-0.2201,-0.2175,-0.2119,-0.2035,-0.2014,-0.1997,-0.1973,-0.1968,-0.1966,-0.1976,-0.1951,-0.192,-0.1928,-0.1936,-0.1836,-0.1836,-0.1835,0,0,-0.2323,-0.2326,-0.2359,-0.237,-0.2381,-0.2369,-0.2382,-0.2366,-0.2344,-0.2326,-0.2252,-0.2215,-0.214,-0.2089,-0.2052,-0.2098,-0.2029,-0.2092,-0.2154,-0.2129,-0.2136,-0.2141,-0.2121,-0.2123,-0.2106,-0.2106,-0.2107,0,-0.2312,-0.2357,-0.2365,-0.2402,-0.241,-0.2393,-0.2422,-0.2409,-0.2374,-0.2359,-0.2334,-0.2235,-0.217,-0.2138,-0.2152,-0.2125,-0.2102,-0.2109,-0.2146,-0.215,-0.2153,-0.213,-0.2131,-0.2114,-0.2113,-0.2112,-0.2112,0,-0.2365,-0.2398,-0.2422,-0.2463,-0.2475,-0.2501,-0.25,-0.2501,-0.2478,-0.2453,-0.2422,-0.2347,-0.2279,-0.2277,-0.2221,-0.2221,-0.2196,-0.2163,-0.2112,-0.2171,-0.2144,-0.2142,-0.2125,-0.2122,-0.212,-0.2118,0,0,-0.2321,-0.2439,-0.2437,-0.2466,-0.2511,-0.2517,-0.2547,-0.2552,-0.2545,-0.2528,-0.251,-0.2451,-0.2409,-0.2363,-0.2311,-0.2299,-0.2312,-0.2251,-0.2246,-0.2238,-0.2268,-0.2161,-0.2148,-0.2297,-0.2297,-0.2296,-0.2252,0,-0.2343,-0.2437,-0.2483,-0.2533,-0.2574,-0.2585,-0.26,-0.2602,-0.2588,-0.2569,-0.2527,-0.2476,-0.2445,-0.2408,-0.2401,-0.2312,-0.2309,-0.2327,-0.2203,-0.2199,-0.2102,-0.2142,-0.2003,-0.1943,-0.225,-0.2249,-0.2249,0,-0.2356,-0.2422,-0.2503,-0.2569,-0.2582,-0.2603,-0.2612,-0.2624,-0.2617,-0.2603,-0.2586,-0.2533,-0.2498,-0.246,-0.2386,-0.2404,-0.2344,-0.2297,-0.2293,-0.2129,-0.2086,-0.1925,-0.1927,-0.1906,-0.2245,-0.2245,-0.2245,0,-0.2304,-0.2411,-0.2476,-0.2502,-0.2585,-0.2599,-0.2616,-0.2625,-0.2616,-0.2611,-0.2588,-0.2566,-0.2507,-0.2468,-0.2357,-0.2375,-0.2268,-0.2276,-0.2136,-0.2129,-0.1946,-0.1922,-0.1906,-0.2229,-0.2229,-0.2229,-0.2229,0,-0.2303,-0.2332,-0.2456,-0.2484,-0.2515,-0.2572,-0.2579,-0.2595,-0.2601,-0.2563,-0.2583,-0.2519,-0.2501,-0.2429,-0.2371,-0.223,-0.2276,-0.2137,-0.2104,-0.1996,-0.1978,-0.1895,-0.1915,-0.2227,-0.2228,-0.2228,-0.2228,0,-0.223,-0.2323,-0.2386,-0.2484,-0.25,-0.2512,-0.2548,-0.2534,-0.2562,-0.2513,-0.2501,-0.2473,-0.2372,-0.2344,-0.2247,-0.22,-0.2045,-0.2041,-0.1917,-0.1869,-0.1731,-0.1765,-0.1678,-0.1639,-0.1905,-0.1902,-0.1899,0,-0.2205,-0.2242,-0.2357,-0.2363,-0.2403,-0.2434,-0.243,-0.2494,-0.2475,-0.2441,-0.239,-0.2315,-0.2196,-0.2058,-0.1963,-0.1867,-0.189,-0.1709,-0.1711,-0.1694,-0.1708,-0.1749,-0.1728,-0.1549,-0.1544,-0.154,-0.1536,0,-0.2114,-0.2163,-0.2203,-0.2253,-0.2266,-0.228,-0.2285,-0.228,-0.2311,-0.2267,-0.2146,-0.2056,-0.1925,-0.1737,-0.1645,-0.158,-0.1653,-0.1617,-0.1624,-0.144,-0.1455,-0.141,-0.1632,-0.1498,-0.1502,-0.1505,-0.1507,-0.1508,-0.1981,-0.2001,-0.2052,-0.2076,-0.2099,-0.2068,-0.2016,-0.202,-0.196,-0.1838,-0.1869,-0.1656,-0.1572,-0.1395,-0.1343,-0.1226,-0.1339,-0.1199,-0.1248,-0.1298,-0.123,-0.1369,-0.1179,-0.1181,-0.1183,-0.1184,-0.1185,0,-0.1772,-0.1818,-0.1849,-0.1864,-0.1823,-0.1894,-0.1854,-0.1764,-0.1635,-0.1528,-0.1406,-0.1179,-0.1057,-0.1019,-0.0929,-0.0878,-0.09,-0.0889,-0.093,-0.0934,-0.1052,-0.1004,-0.0735,-0.0735,-0.0735,-0.0735,-0.0735,-0.0736,-0.1643,-0.1615,-0.1672,-0.1565,-0.1571,-0.146,-0.1403,-0.1294,-0.118,-0.0904,-0.0706,-0.061,-0.0657,-0.0764,-0.074,-0.0715,-0.0751,-0.0693,-0.0793,-0.0891,-0.0925,-0.0958,-0.0918,-0.0636,-0.0636,-0.0609,-0.0609,-0.0609]},{"header":{"parameterUnit":"m.s-1","parameterCategory":2,"la1":30.2991,"la2":30.254,"lo1":-89.0895,"lo2":-89.0444,"dy":0.0017,"dx":0.0017,"nx":28,"ny":28,"refTime":"2025-03-25T21:00:00:Z","depth":"0","parameterNumber":3,"parameterNumberName":"V-component_of_CURRENTS"},"data":[0,0,0,0,0,0,0,0,0,0,0,0,0,0,0,0,0,0,0,0,0,0,0,0,0,0,0,0,0,0,0,0,0,0,0,0,0,0,0,0,0,0,0,0,0,0,0,0,0,0,0,0,0,0,0,0,0,0,0.0487,0.0488,0,0.06,0.0601,0.0603,0.062,0.0619,0.0618,0.0617,0.0688,0.0691,0.0694,0,0,0,0,0,0,0,0,0,0,0,0,0,0.034,0.0342,0.0487,0.0488,0.049,0.06,0.0602,0.0603,0.062,0.0619,0.0618,0.0617,0.0687,0.0691,0.0694,0,0,0,0,0,0,0,0,0,0,0,0,0,0.0422,0.0342,0.0487,0.0513,0.0517,0.06,0.0602,0.0603,0.062,0.0619,0.0618,0.0616,0.0686,0.069,0.0694,0.0745,0,0,0.0707,0.0708,0,0,0,0,0,0,0,0,0.0417,0.0427,0.0508,0.0511,0.0516,0.0596,0.0576,0.0649,0.0621,0.0579,0.0617,0.0616,0.0656,0.0662,0.0685,0.0749,0.0752,0.0707,0.0709,0.0711,0.0712,0,0,0,0,0,0,0,0.0411,0.0422,0.053,0.0509,0.0514,0.0538,0.0547,0.059,0.0621,0.0583,0.0585,0.06,0.0657,0.0681,0.0686,0.0753,0.0707,0.0711,0.0713,0.0715,0.0875,0.0877,0,0,0,0,0,0,0.0399,0.0417,0.0527,0.0534,0.0464,0.0542,0.0552,0.057,0.0622,0.0629,0.0601,0.0601,0.0674,0.0682,0.0689,0.0756,0.0711,0.0715,0.0717,0.0874,0.0876,0.0878,0,0,0,0,0,0,0.0396,0.0408,0.0522,0.0479,0.0495,0.0545,0.0566,0.0573,0.0592,0.0637,0.0643,0.0611,0.0674,0.0683,0.0732,0.0758,0.0717,0.0721,0.0871,0.0874,0.0877,0.0888,0,0,0,0,0,0,0.0391,0.0406,0.0409,0.0478,0.0497,0.0564,0.0567,0.0576,0.0605,0.0605,0.0648,0.0653,0.0673,0.0726,0.0736,0.0763,0.0724,0.0869,0.0873,0.0876,0.0885,0.0891,0.0896,0,0,0,0,0,0.0386,0.0394,0.0408,0.0421,0.0501,0.0564,0.0576,0.0606,0.0606,0.0617,0.0653,0.0652,0.0755,0.0731,0.0742,0.0771,0.0867,0.0872,0.0876,0.0883,0.089,0.0896,0,0,0,0,0,0,0.0333,0.0399,0.0416,0.0444,0.0497,0.0567,0.0579,0.0607,0.0646,0.064,0.0677,0.0686,0.0739,0.0759,0.0731,0.083,0.0811,0.0818,0.0813,0.082,0.0825,0.0778,0.0727,0,0,0,0,0,0.0324,0.0344,0.0416,0.0437,0.0461,0.0521,0.0548,0.0574,0.0622,0.0637,0.0675,0.0718,0.077,0.0793,0.0836,0.0891,0.0882,0.0918,0.0923,0.0927,0.0899,0.0938,0.0943,0.0891,0.0891,0.0891,0,0,0.031,0.0349,0.036,0.0427,0.0467,0.0504,0.0533,0.0573,0.0606,0.064,0.0688,0.0735,0.0789,0.085,0.0875,0.0866,0.0937,0.0933,0.0936,0.0904,0.0943,0.0948,0.0952,0.0894,0.0894,0.0893,0,0,0.029,0.0327,0.0333,0.0378,0.0438,0.0485,0.0496,0.057,0.06,0.0664,0.0699,0.0759,0.0834,0.0883,0.0917,0.0978,0.0962,0.0996,0.0986,0.1026,0.1029,0.1032,0.1013,0.1014,0.1,0.1,0.1,0,0.0266,0.029,0.0346,0.0369,0.0399,0.0474,0.0493,0.055,0.0632,0.0658,0.0673,0.0799,0.0851,0.0928,0.0952,0.0988,0.098,0.0956,0.1029,0.1032,0.1035,0.1015,0.1016,0.1001,0.1001,0.1001,0.1001,0,0.0255,0.0276,0.0286,0.0339,0.0382,0.0412,0.0498,0.0542,0.0593,0.065,0.0731,0.0816,0.0878,0.0929,0.096,0.1019,0.0995,0.1028,0.1003,0.104,0.1017,0.1018,0.1003,0.1003,0.1002,0.1002,0,0,0.0194,0.026,0.0261,0.027,0.0364,0.0392,0.046,0.0535,0.0558,0.0662,0.0697,0.0828,0.0862,0.0901,0.0964,0.1011,0.1041,0.102,0.1022,0.098,0.1076,0.0986,0.0978,0.1084,0.1084,0.1085,0.1046,0,0.0162,0.0169,0.023,0.025,0.0262,0.0353,0.0402,0.0481,0.0557,0.0614,0.0727,0.0785,0.0859,0.0882,0.0949,0.1014,0.1045,0.1044,0.1062,0.1061,0.0962,0.0978,0.0977,0.0936,0.1046,0.1046,0.1047,0,0.0123,0.0134,0.0133,0.0183,0.0197,0.0226,0.0294,0.0352,0.0467,0.052,0.0612,0.0692,0.0787,0.084,0.0956,0.0947,0.0997,0.105,0.1051,0.0955,0.0974,0.0923,0.0933,0.1043,0.1048,0.1048,0.1048,0,0.0022,0.0065,0.005,0.0071,0.0147,0.016,0.0205,0.0308,0.0349,0.0449,0.0474,0.0608,0.0653,0.0763,0.0875,0.0913,0.0969,0.1042,0.1004,0.0997,0.0989,0.0979,0.1087,0.1103,0.1103,0.1103,0.1103,0,-0.004,-0.0046,-0.0008,-0.0015,-0.0032,0.0056,0.0064,0.013,0.022,0.026,0.04,0.0442,0.0636,0.0708,0.0823,0.0883,0.0927,0.0974,0.0983,0.0991,0.0983,0.1071,0.1119,0.1102,0.1102,0.1102,0.1103,0,-0.0134,-0.0106,-0.0125,-0.0088,-0.0082,-0.0097,-0.0033,-0.0014,0.0069,0.0121,0.0145,0.0301,0.039,0.0543,0.0695,0.0783,0.0905,0.0879,0.0836,0.084,0.0913,0.096,0.0977,0.1023,0.084,0.0838,0.0836,0,-0.0169,-0.0199,-0.0211,-0.0229,-0.0213,-0.0214,-0.0202,-0.0108,-0.0067,0.004,0.0061,0.0147,0.0224,0.0368,0.0537,0.0666,0.0797,0.0726,0.0817,0.0886,0.0949,0.0979,0.1021,0.0816,0.0814,0.0813,0.0811,0,-0.0236,-0.0258,-0.0279,-0.0331,-0.0341,-0.0335,-0.0304,-0.0295,-0.0172,-0.013,-0.0056,-0.0005,0.0125,0.0279,0.0412,0.0514,0.0777,0.0692,0.0818,0.0957,0.0947,0.1005,0.0834,0.0796,0.0798,0.0799,0.08,0.08,-0.0279,-0.033,-0.037,-0.0409,-0.0426,-0.0416,-0.0388,-0.0346,-0.0296,-0.0154,-0.0145,0.0032,0.014,0.034,0.0422,0.0634,0.0658,0.0755,0.0807,0.0831,0.0875,0.0612,0.0553,0.0553,0.0553,0.0553,0.0553,0,-0.0298,-0.0361,-0.0425,-0.0452,-0.046,-0.045,-0.0408,-0.0337,-0.027,-0.0125,-0.0049,0.0238,0.0323,0.0509,0.0697,0.0795,0.0862,0.0858,0.0974,0.1017,0.0846,0.0848,0.0785,0.0785,0.0785,0.0785,0.0785,0.0785,-0.03,-0.0381,-0.0424,-0.0448,-0.0455,-0.0389,-0.0345,-0.0262,-0.0117,0.0159,0.0454,0.0608,0.0795,0.0856,0.1012,0.1022,0.1173,0.1095,0.1182,0.1151,0.1149,0.1147,0.1166,0.117,0.1171,0.137,0.1372,0.1374]}],[{"header":{"parameterUnit":"m.s-1","parameterCategory":2,"la1":30.2991,"la2":30.254,"lo1":-89.0895,"lo2":-89.0444,"dy":0.0017,"dx":0.0017,"nx":28,"ny":28,"refTime":"2025-03-25T21:00:00:Z","depth":"2","parameterNumber":2,"parameterNumberName":"U-component_of_CURRENTS"},"data":[0,0,0,0,0,0,0,0,0,0,0,0,0,0,0,0,0,0,0,0,0,0,0,0,0,0,0,0,0,0,0,0,0,0,0,0,0,0,0,0,0,0,0,0,0,0,0,0,0,0,0,0,0,0,0,0,0,0,-0.2245,-0.2245,0,-0.2197,-0.2196,-0.2195,-0.2136,-0.2135,-0.2135,-0.2134,-0.2008,-0.2005,-0.2002,0,0,0,0,0,0,0,0,0,0,0,0,0,-0.2273,-0.2273,-0.2245,-0.2245,-0.2245,-0.2197,-0.2196,-0.2195,-0.2136,-0.2135,-0.2135,-0.2134,-0.2009,-0.2005,-0.2002,0,0,0,0,0,0,0,0,0,0,0,0,0,-0.2243,-0.2273,-0.2245,-0.2212,-0.2209,-0.2197,-0.2196,-0.2194,-0.2136,-0.2135,-0.2134,-0.2134,-0.201,-0.2006,-0.2002,-0.1993,0,0,-0.1989,-0.1987,0,0,0,0,0,0,0,0,-0.2245,-0.2242,-0.2218,-0.2215,-0.2211,-0.2175,-0.2159,-0.2124,-0.2136,-0.216,-0.2134,-0.2133,-0.2059,-0.2051,-0.204,-0.1987,-0.1981,-0.1988,-0.1986,-0.1984,-0.1983,0,0,0,0,0,0,0,-0.2247,-0.2243,-0.2222,-0.2217,-0.2214,-0.2196,-0.219,-0.2152,-0.2111,-0.2158,-0.2154,-0.2155,-0.2056,-0.2044,-0.2036,-0.198,-0.1988,-0.1985,-0.1982,-0.198,-0.192,-0.192,0,0,0,0,0,0,-0.2262,-0.2246,-0.2224,-0.2221,-0.223,-0.2196,-0.219,-0.2184,-0.2113,-0.2103,-0.2156,-0.2153,-0.2052,-0.2041,-0.2031,-0.2032,-0.1984,-0.198,-0.1977,-0.1919,-0.192,-0.1921,0,0,0,0,0,0,-0.2263,-0.226,-0.2226,-0.2235,-0.223,-0.2197,-0.2191,-0.2184,-0.2171,-0.2113,-0.21,-0.2151,-0.2051,-0.2037,-0.2007,-0.2026,-0.1978,-0.1974,-0.1918,-0.1919,-0.192,-0.2023,0,0,0,0,0,0,-0.2264,-0.2261,-0.2261,-0.2236,-0.223,-0.2231,-0.2192,-0.2184,-0.2175,-0.217,-0.2105,-0.2092,-0.2049,-0.2014,-0.2003,-0.2019,-0.1971,-0.1916,-0.1918,-0.192,-0.2019,-0.2028,-0.2036,0,0,0,0,0,-0.2265,-0.2272,-0.2261,-0.2258,-0.2231,-0.2232,-0.2227,-0.2198,-0.2176,-0.2181,-0.2136,-0.2094,-0.2017,-0.2011,-0.1998,-0.2014,-0.1916,-0.1918,-0.192,-0.2015,-0.2026,-0.2036,0,0,0,0,0,0,-0.2284,-0.2266,-0.2253,-0.2254,-0.225,-0.2224,-0.2223,-0.2206,-0.2174,-0.2163,-0.2103,-0.2088,-0.207,-0.2029,-0.2024,-0.2002,-0.1961,-0.196,-0.2037,-0.2047,-0.2056,-0.2084,-0.1967,0,0,0,0,0,-0.229,-0.2284,-0.2275,-0.2274,-0.2276,-0.2251,-0.2246,-0.223,-0.2203,-0.2188,-0.2147,-0.2102,-0.2069,-0.2048,-0.2012,-0.1998,-0.1977,-0.2001,-0.2009,-0.2017,-0.2031,-0.2022,-0.2032,-0.1928,-0.1928,-0.1928,0,0,-0.2293,-0.2286,-0.228,-0.2277,-0.2266,-0.228,-0.2244,-0.2245,-0.2253,-0.2179,-0.217,-0.2129,-0.2072,-0.206,-0.2048,-0.2027,-0.2037,-0.202,-0.2027,-0.2037,-0.2026,-0.2036,-0.2045,-0.1929,-0.1929,-0.1929,0,0,-0.2308,-0.2297,-0.2302,-0.2307,-0.2306,-0.23,-0.2306,-0.2291,-0.2281,-0.2271,-0.2224,-0.2203,-0.2144,-0.2122,-0.2098,-0.2133,-0.2084,-0.2114,-0.2178,-0.217,-0.2179,-0.2186,-0.2181,-0.2187,-0.2118,-0.2118,-0.2118,0,-0.2314,-0.2319,-0.2307,-0.2324,-0.2333,-0.2315,-0.2337,-0.2332,-0.2309,-0.2311,-0.228,-0.2226,-0.2179,-0.2175,-0.2187,-0.2155,-0.2139,-0.2144,-0.2183,-0.219,-0.2196,-0.2188,-0.2194,-0.2123,-0.2122,-0.2122,-0.2121,0,-0.2332,-0.2345,-0.2354,-0.2367,-0.2382,-0.2395,-0.2401,-0.2411,-0.2395,-0.2387,-0.2381,-0.2327,-0.2296,-0.2281,-0.224,-0.2262,-0.2234,-0.2197,-0.2161,-0.2213,-0.2201,-0.2205,-0.213,-0.2129,-0.2127,-0.2126,0,0,-0.2311,-0.2358,-0.2357,-0.2368,-0.2405,-0.2406,-0.2453,-0.2476,-0.2501,-0.2476,-0.2499,-0.2453,-0.2427,-0.24,-0.2353,-0.2349,-0.2378,-0.2297,-0.2294,-0.2302,-0.2363,-0.2163,-0.2147,-0.2344,-0.2345,-0.2346,-0.2342,0,-0.2324,-0.2345,-0.239,-0.2422,-0.2425,-0.2466,-0.2525,-0.2548,-0.255,-0.2571,-0.2536,-0.2525,-0.247,-0.2453,-0.2448,-0.2385,-0.2391,-0.2382,-0.2304,-0.2302,-0.2125,-0.2146,-0.2004,-0.1972,-0.2345,-0.2346,-0.2346,0,-0.2313,-0.2326,-0.2367,-0.2435,-0.2452,-0.25,-0.2565,-0.2615,-0.2666,-0.2669,-0.2664,-0.2626,-0.2613,-0.2557,-0.2507,-0.25,-0.2451,-0.2409,-0.2406,-0.2186,-0.2107,-0.1977,-0.1964,-0.2352,-0.2352,-0.2351,-0.2351,0,-0.2243,-0.2301,-0.2331,-0.2349,-0.2446,-0.25,-0.256,-0.2637,-0.265,-0.272,-0.2686,-0.2716,-0.2655,-0.2639,-0.2512,-0.2524,-0.2443,-0.2446,-0.2233,-0.2219,-0.2064,-0.2032,-0.2435,-0.2435,-0.2435,-0.2435,-0.2435,0,-0.2212,-0.2236,-0.23,-0.2317,-0.2346,-0.2466,-0.2521,-0.2591,-0.2675,-0.2648,-0.2711,-0.2629,-0.2662,-0.2586,-0.2548,-0.2364,-0.2463,-0.2247,-0.2199,-0.2092,-0.2065,-0.2363,-0.2354,-0.2435,-0.2435,-0.2435,-0.2435,0,-0.2135,-0.2197,-0.2193,-0.2283,-0.2314,-0.232,-0.2419,-0.246,-0.2563,-0.252,-0.2522,-0.2542,-0.2443,-0.2439,-0.2393,-0.2326,-0.224,-0.2156,-0.2022,-0.1955,-0.2038,-0.2036,-0.1971,-0.1964,-0.1958,-0.1952,-0.1948,0,-0.2094,-0.2101,-0.2105,-0.2084,-0.2131,-0.2168,-0.2222,-0.2362,-0.2366,-0.2389,-0.2331,-0.2279,-0.2148,-0.2033,-0.1971,-0.1903,-0.2014,-0.1727,-0.1715,-0.2027,-0.1989,-0.1996,-0.2001,-0.158,-0.1573,-0.1567,-0.1563,0,-0.1979,-0.1988,-0.1967,-0.1932,-0.1944,-0.1939,-0.2,-0.196,-0.2101,-0.2061,-0.1964,-0.1891,-0.1776,-0.162,-0.1555,-0.1504,-0.1741,-0.1599,-0.1967,-0.1682,-0.1647,-0.1612,-0.1634,-0.1512,-0.1517,-0.1521,-0.1524,-0.1526,-0.1851,-0.1782,-0.1765,-0.1728,-0.1734,-0.1707,-0.1642,-0.1696,-0.1652,-0.1592,-0.1603,-0.148,-0.1478,-0.1266,-0.1179,-0.1163,-0.129,-0.1291,-0.1315,-0.1344,-0.1261,-0.1212,-0.0984,-0.0985,-0.0987,-0.0989,-0.099,0,-0.1651,-0.1634,-0.1584,-0.1509,-0.1453,-0.1553,-0.1504,-0.1434,-0.131,-0.1307,-0.1223,-0.105,-0.0927,-0.0951,-0.0819,-0.0778,-0.0857,-0.0768,-0.0896,-0.0944,-0.0987,-0.0894,-0.0516,-0.0514,-0.0513,-0.0512,0,0,-0.1558,-0.1441,-0.1435,-0.1262,-0.1249,-0.1153,-0.1086,-0.1017,-0.0971,-0.0855,-0.0821,-0.0876,-0.089,-0.0702,-0.065,-0.0559,-0.0758,-0.053,-0.0907,-0.1104,-0.1146,-0.1273,-0.1177,0,0,0,0,0]},{"header":{"parameterUnit":"m.s-1","parameterCategory":2,"la1":30.2991,"la2":30.254,"lo1":-89.0895,"lo2":-89.0444,"dy":0.0017,"dx":0.0017,"nx":28,"ny":28,"refTime":"2025-03-25T21:00:00:Z","depth":"2","parameterNumber":3,"parameterNumberName":"V-component_of_CURRENTS"},"data":[0,0,0,0,0,0,0,0,0,0,0,0,0,0,0,0,0,0,0,0,0,0,0,0,0,0,0,0,0,0,0,0,0,0,0,0,0,0,0,0,0,0,0,0,0,0,0,0,0,0,0,0,0,0,0,0,0,0,-0.0588,-0.0588,0,-0.0554,-0.0554,-0.0553,-0.0531,-0.0531,-0.0531,-0.0531,-0.0449,-0.0446,-0.0444,0,0,0,0,0,0,0,0,0,0,0,0,0,-0.0577,-0.0578,-0.0588,-0.0588,-0.0588,-0.0554,-0.0554,-0.0553,-0.0531,-0.0531,-0.0531,-0.0531,-0.0449,-0.0447,-0.0444,0,0,0,0,0,0,0,0,0,0,0,0,0,-0.0566,-0.0578,-0.0588,-0.0573,-0.0572,-0.0554,-0.0554,-0.0553,-0.0531,-0.0531,-0.0531,-0.0531,-0.045,-0.0447,-0.0444,-0.0425,0,0,-0.0434,-0.0432,0,0,0,0,0,0,0,0,-0.0567,-0.0566,-0.0576,-0.0574,-0.0573,-0.0548,-0.0519,-0.0508,-0.0531,-0.0546,-0.0531,-0.0531,-0.0478,-0.0472,-0.0465,-0.0421,-0.0418,-0.0434,-0.0432,-0.043,-0.0429,0,0,0,0,0,0,0,-0.0567,-0.0567,-0.0574,-0.0576,-0.0574,-0.0549,-0.0547,-0.0517,-0.0511,-0.0544,-0.0543,-0.0541,-0.0476,-0.0469,-0.0463,-0.0416,-0.0434,-0.0431,-0.0429,-0.0428,-0.0337,-0.0336,0,0,0,0,0,0,-0.0577,-0.0568,-0.0575,-0.0573,-0.057,-0.0549,-0.0548,-0.0555,-0.0512,-0.0506,-0.0541,-0.054,-0.0474,-0.0467,-0.046,-0.0418,-0.043,-0.0427,-0.0425,-0.0337,-0.0337,-0.0336,0,0,0,0,0,0,-0.0577,-0.0578,-0.0576,-0.057,-0.0568,-0.055,-0.0558,-0.0554,-0.0545,-0.051,-0.0503,-0.0535,-0.0474,-0.0465,-0.0433,-0.0416,-0.0426,-0.0423,-0.0338,-0.0337,-0.0336,-0.0346,0,0,0,0,0,0,-0.0577,-0.0579,-0.0583,-0.0571,-0.0569,-0.0568,-0.0558,-0.0554,-0.0544,-0.0542,-0.0503,-0.0495,-0.0473,-0.0439,-0.043,-0.0411,-0.042,-0.0338,-0.0337,-0.0337,-0.0346,-0.0345,-0.0345,0,0,0,0,0,-0.0577,-0.059,-0.0584,-0.0584,-0.0577,-0.0569,-0.0565,-0.0551,-0.0544,-0.0541,-0.0514,-0.0496,-0.0427,-0.0436,-0.0426,-0.0406,-0.0339,-0.0338,-0.0337,-0.0346,-0.0346,-0.0345,0,0,0,0,0,0,-0.0583,-0.0588,-0.0582,-0.0594,-0.0581,-0.0565,-0.0562,-0.0551,-0.0528,-0.0524,-0.0492,-0.0482,-0.0447,-0.0428,-0.0438,-0.0378,-0.0379,-0.0376,-0.0389,-0.0388,-0.0388,-0.0367,-0.0418,0,0,0,0,0,-0.0588,-0.0601,-0.0592,-0.0599,-0.0595,-0.0577,-0.057,-0.0561,-0.0541,-0.0531,-0.0501,-0.0468,-0.0435,-0.0415,-0.0386,-0.0353,-0.0303,-0.0333,-0.0333,-0.0332,-0.0309,-0.0225,-0.0214,-0.0333,-0.0333,-0.0333,0,0,-0.059,-0.0595,-0.0601,-0.0601,-0.059,-0.0586,-0.0573,-0.0566,-0.0551,-0.0524,-0.0492,-0.0465,-0.0427,-0.0392,-0.0373,-0.0372,-0.0275,-0.0331,-0.0331,-0.0307,-0.0223,-0.0211,-0.02,-0.0332,-0.0332,-0.0332,0,0,-0.061,-0.0608,-0.0627,-0.0619,-0.0609,-0.0592,-0.0591,-0.0571,-0.0551,-0.0522,-0.0496,-0.0453,-0.0413,-0.0371,-0.0348,-0.0324,-0.0277,-0.0325,-0.0299,-0.0219,-0.0208,-0.0197,-0.0128,-0.0111,-0.0322,-0.0322,-0.0322,0,-0.0611,-0.0634,-0.0627,-0.0637,-0.0627,-0.0597,-0.0599,-0.0573,-0.0541,-0.0511,-0.0514,-0.042,-0.0395,-0.0327,-0.0322,-0.0319,-0.0272,-0.0307,-0.0216,-0.0205,-0.0194,-0.0125,-0.0106,-0.0322,-0.0322,-0.0322,-0.0322,0,-0.0648,-0.0655,-0.0662,-0.0663,-0.0648,-0.0645,-0.0609,-0.058,-0.0549,-0.0513,-0.0442,-0.0398,-0.0336,-0.0327,-0.0317,-0.023,-0.0222,-0.0228,-0.0216,-0.0182,-0.0112,-0.0092,-0.0323,-0.0322,-0.0322,-0.0322,0,0,-0.0674,-0.0687,-0.0687,-0.0691,-0.066,-0.0657,-0.0612,-0.0562,-0.0518,-0.0471,-0.0401,-0.0343,-0.0304,-0.0273,-0.0246,-0.0177,-0.0073,-0.0172,-0.0168,-0.0099,0.0106,0.0023,0.0036,-0.0065,-0.0061,-0.0058,0.0121,0,-0.0699,-0.0734,-0.072,-0.0723,-0.0732,-0.0676,-0.0633,-0.0577,-0.0513,-0.0435,-0.0357,-0.0289,-0.0288,-0.0251,-0.018,-0.01,-0.002,-0.012,0.0061,0.0067,-0.0008,0.0057,0.0049,0.02,0.014,0.0144,0.0146,0,-0.0742,-0.0756,-0.0778,-0.0753,-0.0747,-0.0733,-0.0647,-0.0602,-0.0476,-0.0421,-0.0324,-0.0259,-0.0144,-0.0153,0.003,-0.0036,0.0043,0.0105,0.0113,0.0059,0.0021,0.0159,0.0239,0.0179,0.0176,0.0174,0.0172,0,-0.079,-0.0793,-0.0814,-0.081,-0.0773,-0.0752,-0.0709,-0.0598,-0.055,-0.0398,-0.0348,-0.0196,-0.0122,0.0007,0.0112,0.0091,0.0307,0.0294,0.0304,0.0299,0.0342,0.0333,0.0447,0.0447,0.0446,0.0446,0.0445,0,-0.0837,-0.0851,-0.0841,-0.0859,-0.0849,-0.0794,-0.0748,-0.0672,-0.0554,-0.0492,-0.0349,-0.028,-0.0078,0.005,0.0153,0.0279,0.0344,0.0338,0.035,0.0333,0.0321,0.0337,0.0322,0.0453,0.0451,0.045,0.0449,0,-0.0896,-0.0898,-0.0917,-0.089,-0.0886,-0.0872,-0.0809,-0.0759,-0.0644,-0.0554,-0.0508,-0.0314,-0.015,0.0025,0.025,0.0312,0.0451,0.0478,0.043,0.0432,0.0389,0.0372,0.0545,0.0544,0.0543,0.0542,0.0541,0,-0.0934,-0.0956,-0.0956,-0.097,-0.0966,-0.0943,-0.0917,-0.0814,-0.0759,-0.06,-0.0558,-0.0371,-0.0237,0.0052,0.022,0.0421,0.043,0.0509,0.046,0.0411,0.0406,0.0389,0.0373,0.0532,0.0531,0.0531,0.053,0,-0.0979,-0.0978,-0.0986,-0.1024,-0.1026,-0.1017,-0.0975,-0.095,-0.0815,-0.0732,-0.0588,-0.0464,-0.021,0.0022,0.025,0.0352,0.0474,0.0496,0.0522,0.046,0.04,0.0393,0.0379,0.0525,0.0525,0.0526,0.0526,0.0526,-0.0992,-0.1006,-0.102,-0.1051,-0.1063,-0.1053,-0.1025,-0.0965,-0.0876,-0.0701,-0.0612,-0.0392,-0.0197,0.014,0.0273,0.0404,0.0408,0.0478,0.0482,0.0485,0.0403,0.0339,0.044,0.044,0.044,0.044,0.044,0,-0.1,-0.1018,-0.1047,-0.1065,-0.107,-0.108,-0.1032,-0.0969,-0.0858,-0.0694,-0.0529,-0.0285,-0.0048,0.0132,0.0326,0.0425,0.0448,0.0444,0.0478,0.0482,0.0486,0.0405,0.0443,0.0443,0.0443,0.0443,0,0,-0.1007,-0.1034,-0.1048,-0.1056,-0.1069,-0.1042,-0.1006,-0.0913,-0.0782,-0.059,-0.0416,-0.0198,-0.0004,0.0139,0.0268,0.0363,0.0393,0.0366,0.0357,0.0385,0.0388,0.05,0.0377,0,0,0,0,0]}],[{"header":{"parameterUnit":"m.s-1","parameterCategory":2,"la1":30.2991,"la2":30.254,"lo1":-89.0895,"lo2":-89.0444,"dy":0.0017,"dx":0.0017,"nx":28,"ny":28,"refTime":"2025-03-25T21:00:00:Z","depth":"4","parameterNumber":2,"parameterNumberName":"U-component_of_CURRENTS"},"data":[0,0,0,0,0,0,0,0,0,0,0,0,0,0,0,0,0,0,0,0,0,0,0,0,0,0,0,0,0,0,0,0,0,0,0,0,0,0,0,0,0,0,0,0,0,0,0,0,0,0,0,0,0,0,0,0,0,0,-0.0834,-0.0834,0,-0.0888,-0.0888,-0.0889,-0.0906,-0.0906,-0.0906,-0.0905,-0.0925,-0.0926,-0.0926,0,0,0,0,0,0,0,0,0,0,0,0,0,-0.0785,-0.0786,-0.0834,-0.0834,-0.0835,-0.0888,-0.0888,-0.0889,-0.0906,-0.0906,-0.0906,-0.0905,-0.0925,-0.0926,-0.0926,0,0,0,0,0,0,0,0,0,0,0,0,0,-0.0818,-0.0786,-0.0833,-0.0851,-0.0853,-0.0888,-0.0889,-0.0889,-0.0906,-0.0906,-0.0905,-0.0905,-0.0925,-0.0926,-0.0927,-0.0937,0,0,-0.093,-0.093,0,0,0,0,0,0,0,0,-0.0816,-0.082,-0.0848,-0.085,-0.0852,-0.0891,-0.0879,-0.0904,-0.0906,-0.0884,-0.0905,-0.0905,-0.0911,-0.0914,-0.0923,-0.0938,-0.0939,-0.093,-0.093,-0.0931,-0.0931,0,0,0,0,0,0,0,-0.0814,-0.0818,-0.0854,-0.0848,-0.0851,-0.087,-0.0874,-0.0884,-0.0897,-0.0886,-0.0888,-0.0896,-0.0912,-0.0922,-0.0923,-0.0939,-0.093,-0.093,-0.0931,-0.0931,-0.1001,-0.1002,0,0,0,0,0,0,-0.0808,-0.0815,-0.0852,-0.0856,-0.0835,-0.0871,-0.0875,-0.0878,-0.0898,-0.0901,-0.0896,-0.0897,-0.092,-0.0922,-0.0924,-0.0976,-0.0931,-0.0932,-0.0932,-0.0999,-0.1001,-0.1002,0,0,0,0,0,0,-0.0807,-0.0811,-0.085,-0.0838,-0.0845,-0.0872,-0.0875,-0.0879,-0.0905,-0.0906,-0.0908,-0.0919,-0.092,-0.0923,-0.0954,-0.0975,-0.0932,-0.0933,-0.0998,-0.1,-0.1001,-0.1055,0,0,0,0,0,0,-0.0805,-0.081,-0.0818,-0.0838,-0.0845,-0.0879,-0.0875,-0.088,-0.0909,-0.0911,-0.0926,-0.0927,-0.092,-0.0953,-0.0955,-0.0976,-0.0934,-0.0996,-0.0999,-0.1001,-0.1052,-0.1058,-0.1064,0,0,0,0,0,-0.0803,-0.0806,-0.0817,-0.0823,-0.0852,-0.088,-0.0886,-0.0904,-0.0911,-0.0926,-0.0943,-0.0927,-0.0969,-0.0955,-0.0958,-0.0979,-0.0995,-0.0998,-0.1001,-0.1049,-0.1057,-0.1064,0,0,0,0,0,0,-0.0781,-0.0809,-0.0822,-0.0831,-0.0861,-0.0884,-0.09,-0.0916,-0.0943,-0.0947,-0.0948,-0.095,-0.0986,-0.0977,-0.0962,-0.1006,-0.0978,-0.0981,-0.1013,-0.1021,-0.1027,-0.1019,-0.0934,0,0,0,0,0,-0.0783,-0.0798,-0.0827,-0.0839,-0.0854,-0.0884,-0.0901,-0.0916,-0.0939,-0.0951,-0.0964,-0.0978,-0.0998,-0.1006,-0.1019,-0.1044,-0.1036,-0.1058,-0.1064,-0.1069,-0.1065,-0.1099,-0.1108,-0.1011,-0.1011,-0.1011,0,0,-0.0779,-0.0797,-0.0805,-0.0837,-0.0861,-0.089,-0.0894,-0.0925,-0.095,-0.0948,-0.0989,-0.1005,-0.1012,-0.1043,-0.1057,-0.1038,-0.109,-0.1073,-0.1077,-0.107,-0.1103,-0.1113,-0.1121,-0.1013,-0.1013,-0.1013,0,0,-0.0775,-0.0795,-0.0809,-0.0839,-0.0881,-0.0902,-0.0916,-0.0953,-0.0972,-0.1012,-0.1022,-0.1053,-0.1077,-0.109,-0.1097,-0.1146,-0.1128,-0.1151,-0.1172,-0.1206,-0.1214,-0.1222,-0.1209,-0.1215,-0.1149,-0.1149,-0.1149,0,-0.0779,-0.0789,-0.0819,-0.0845,-0.0872,-0.091,-0.0937,-0.0965,-0.1009,-0.1028,-0.1029,-0.1084,-0.1097,-0.1132,-0.1156,-0.1159,-0.1163,-0.1143,-0.1215,-0.1222,-0.1228,-0.1214,-0.1219,-0.1152,-0.1151,-0.1151,-0.1151,0,-0.0785,-0.0804,-0.0816,-0.0864,-0.0899,-0.0927,-0.0973,-0.1008,-0.1037,-0.1064,-0.111,-0.1131,-0.116,-0.1175,-0.1184,-0.1236,-0.1218,-0.1224,-0.1195,-0.1241,-0.1223,-0.1227,-0.1156,-0.1155,-0.1154,-0.1153,0,0,-0.0767,-0.0812,-0.082,-0.0842,-0.0911,-0.0937,-0.0989,-0.104,-0.1074,-0.1112,-0.1149,-0.1194,-0.121,-0.1219,-0.1234,-0.1264,-0.1318,-0.127,-0.127,-0.1254,-0.1369,-0.1264,-0.1258,-0.1348,-0.135,-0.1351,-0.1332,0,-0.0767,-0.0804,-0.0832,-0.0879,-0.0903,-0.096,-0.1002,-0.1059,-0.1105,-0.1153,-0.1179,-0.1224,-0.1224,-0.125,-0.1282,-0.1316,-0.1336,-0.132,-0.1328,-0.1327,-0.1227,-0.1262,-0.1356,-0.1335,-0.1336,-0.1337,-0.1337,0,-0.0762,-0.0788,-0.0827,-0.0881,-0.0899,-0.0938,-0.1019,-0.1066,-0.1142,-0.1172,-0.1217,-0.125,-0.1298,-0.1299,-0.1349,-0.1344,-0.1363,-0.1376,-0.1376,-0.1261,-0.1231,-0.1283,-0.1346,-0.1345,-0.1344,-0.1344,-0.1343,0,-0.0727,-0.0781,-0.081,-0.0834,-0.0908,-0.0939,-0.0989,-0.1074,-0.1116,-0.1198,-0.1221,-0.1282,-0.1307,-0.1349,-0.1365,-0.1382,-0.1403,-0.1426,-0.1334,-0.1325,-0.1401,-0.1394,-0.1466,-0.1466,-0.1466,-0.1466,-0.1466,0,-0.0707,-0.0727,-0.0797,-0.0813,-0.086,-0.0926,-0.0987,-0.104,-0.1118,-0.1159,-0.123,-0.1248,-0.1332,-0.1349,-0.1371,-0.1339,-0.1402,-0.1333,-0.1321,-0.1421,-0.1416,-0.1403,-0.1396,-0.1465,-0.1465,-0.1465,-0.1466,0,-0.0657,-0.07,-0.0735,-0.0811,-0.0842,-0.0883,-0.098,-0.1009,-0.109,-0.1143,-0.1169,-0.1241,-0.1265,-0.1296,-0.1354,-0.1323,-0.1322,-0.1295,-0.1357,-0.135,-0.1222,-0.1218,-0.1211,-0.1207,-0.1204,-0.1201,-0.1199,0,-0.064,-0.0651,-0.0729,-0.0751,-0.0785,-0.0857,-0.089,-0.0988,-0.1014,-0.1117,-0.1113,-0.1178,-0.1213,-0.1175,-0.1234,-0.1234,-0.1233,-0.121,-0.1261,-0.121,-0.12,-0.1201,-0.1201,-0.1194,-0.1193,-0.1192,-0.1192,0,-0.0607,-0.0632,-0.0661,-0.0699,-0.0737,-0.0779,-0.0833,-0.0855,-0.0954,-0.1022,-0.105,-0.1084,-0.1093,-0.1129,-0.1114,-0.1124,-0.122,-0.1178,-0.1186,-0.1234,-0.119,-0.1183,-0.1187,-0.1181,-0.1182,-0.1183,-0.1184,0,-0.0588,-0.0594,-0.0624,-0.0647,-0.0682,-0.0687,-0.0739,-0.0769,-0.0824,-0.0937,-0.0944,-0.1008,-0.1082,-0.1069,-0.1059,-0.1049,-0.1068,-0.1056,-0.1071,-0.1083,-0.1052,-0.0978,-0.0891,0,0,0,0,0,-0.0565,-0.055,-0.0567,-0.0584,-0.06,-0.0619,-0.0682,-0.0731,-0.0831,-0.0821,-0.0892,-0.0905,-0.0933,-0.0966,-0.0935,-0.1006,-0.106,-0.0965,-0.1051,-0.1121,-0.1133,-0.1109,0,0,0,0,0,0,-0.0546,-0.0556,-0.0547,-0.0516,-0.0505,-0.0521,-0.0561,-0.0629,-0.0639,-0.0745,-0.076,-0.0839,-0.0867,-0.0929,-0.091,-0.0919,-0.0955,-0.1009,-0.1007,-0.1113,-0.1125,-0.1135,-0.1115,0,0,0,0,0]},{"header":{"parameterUnit":"m.s-1","parameterCategory":2,"la1":30.2991,"la2":30.254,"lo1":-89.0895,"lo2":-89.0444,"dy":0.0017,"dx":0.0017,"nx":28,"ny":28,"refTime":"2025-03-25T21:00:00:Z","depth":"4","parameterNumber":3,"parameterNumberName":"V-component_of_CURRENTS"},"data":[0,0,0,0,0,0,0,0,0,0,0,0,0,0,0,0,0,0,0,0,0,0,0,0,0,0,0,0,0,0,0,0,0,0,0,0,0,0,0,0,0,0,0,0,0,0,0,0,0,0,0,0,0,0,0,0,0,0,-0.036,-0.036,0,-0.035,-0.0349,-0.0349,-0.032,-0.032,-0.0319,-0.0318,-0.0277,-0.0276,-0.0276,0,0,0,0,0,0,0,0,0,0,0,0,0,-0.0341,-0.0341,-0.036,-0.036,-0.0359,-0.035,-0.0349,-0.0349,-0.032,-0.032,-0.0319,-0.0318,-0.0277,-0.0276,-0.0276,0,0,0,0,0,0,0,0,0,0,0,0,0,-0.0342,-0.0342,-0.036,-0.0344,-0.0342,-0.035,-0.0349,-0.0349,-0.032,-0.0319,-0.0318,-0.0318,-0.0277,-0.0276,-0.0276,-0.0291,0,0,-0.0273,-0.0273,0,0,0,0,0,0,0,0,-0.0342,-0.0343,-0.0346,-0.0345,-0.0343,-0.0335,-0.0327,-0.0328,-0.0321,-0.0329,-0.0318,-0.0317,-0.0294,-0.0292,-0.0293,-0.0289,-0.0288,-0.0273,-0.0273,-0.0273,-0.0272,0,0,0,0,0,0,0,-0.0342,-0.0343,-0.0356,-0.0346,-0.0344,-0.0332,-0.0331,-0.0328,-0.0317,-0.0328,-0.0326,-0.0325,-0.0293,-0.0294,-0.0292,-0.0287,-0.0273,-0.0273,-0.0272,-0.0272,-0.029,-0.0291,0,0,0,0,0,0,-0.0345,-0.0343,-0.0356,-0.0356,-0.034,-0.0333,-0.0332,-0.0339,-0.0317,-0.0313,-0.0325,-0.0323,-0.0295,-0.0292,-0.029,-0.031,-0.0273,-0.0272,-0.0272,-0.0289,-0.029,-0.0291,0,0,0,0,0,0,-0.0344,-0.0346,-0.0357,-0.0348,-0.0349,-0.0335,-0.0342,-0.0339,-0.034,-0.0316,-0.0311,-0.0329,-0.0295,-0.0291,-0.029,-0.0308,-0.0272,-0.0271,-0.0288,-0.0289,-0.029,-0.0348,0,0,0,0,0,0,-0.0344,-0.0346,-0.0355,-0.0349,-0.0349,-0.0368,-0.0343,-0.034,-0.034,-0.0337,-0.0317,-0.0312,-0.0293,-0.0291,-0.0289,-0.0306,-0.027,-0.0287,-0.0288,-0.029,-0.0345,-0.0352,-0.0357,0,0,0,0,0,-0.0344,-0.0358,-0.0356,-0.0357,-0.0361,-0.0369,-0.0368,-0.0354,-0.0341,-0.035,-0.0333,-0.0313,-0.03,-0.0291,-0.0289,-0.0306,-0.0286,-0.0288,-0.029,-0.0343,-0.035,-0.0357,0,0,0,0,0,0,-0.0352,-0.0357,-0.0353,-0.0368,-0.0371,-0.0364,-0.037,-0.0361,-0.0356,-0.0352,-0.0325,-0.032,-0.0326,-0.031,-0.0301,-0.0317,-0.029,-0.0292,-0.0331,-0.0338,-0.0344,-0.035,-0.027,0,0,0,0,0,-0.036,-0.0375,-0.0374,-0.0388,-0.039,-0.0382,-0.0384,-0.0378,-0.0371,-0.0368,-0.0353,-0.034,-0.0335,-0.033,-0.0324,-0.0333,-0.0309,-0.0343,-0.0349,-0.0354,-0.0357,-0.0334,-0.0338,-0.0298,-0.0298,-0.0298,0,0,-0.0367,-0.0372,-0.038,-0.0391,-0.0392,-0.0406,-0.0381,-0.0391,-0.0402,-0.0365,-0.0375,-0.0362,-0.0342,-0.0352,-0.0354,-0.0339,-0.0354,-0.0356,-0.0361,-0.0361,-0.0337,-0.0341,-0.0344,-0.0299,-0.0299,-0.0299,0,0,-0.039,-0.0395,-0.0414,-0.0422,-0.0429,-0.0427,-0.0432,-0.0431,-0.0429,-0.044,-0.0415,-0.0414,-0.0406,-0.0397,-0.039,-0.0426,-0.0387,-0.0423,-0.0455,-0.0434,-0.0437,-0.0439,-0.0419,-0.0419,-0.0424,-0.0424,-0.0424,0,-0.0397,-0.0421,-0.0421,-0.044,-0.045,-0.0439,-0.0461,-0.0462,-0.0461,-0.0463,-0.0451,-0.0446,-0.043,-0.0438,-0.0448,-0.0439,-0.0416,-0.043,-0.0441,-0.0442,-0.0444,-0.0422,-0.0422,-0.0427,-0.0427,-0.0426,-0.0426,0,-0.0432,-0.0452,-0.0464,-0.0488,-0.05,-0.0518,-0.0521,-0.0529,-0.0525,-0.0522,-0.0532,-0.0515,-0.051,-0.0507,-0.0487,-0.0494,-0.0471,-0.0451,-0.0422,-0.0451,-0.0427,-0.0425,-0.0431,-0.043,-0.0429,-0.0429,0,0,-0.044,-0.0482,-0.0485,-0.0505,-0.0528,-0.0542,-0.0563,-0.0578,-0.0588,-0.0589,-0.06,-0.0598,-0.0586,-0.0577,-0.0556,-0.0536,-0.0528,-0.0499,-0.0496,-0.0478,-0.0476,-0.0372,-0.0359,-0.0503,-0.0503,-0.0503,-0.0458,0,-0.0465,-0.0513,-0.0528,-0.0572,-0.0595,-0.06,-0.0623,-0.0635,-0.0635,-0.0642,-0.0628,-0.0631,-0.0613,-0.0609,-0.0594,-0.0541,-0.0524,-0.0542,-0.0452,-0.0449,-0.0351,-0.0354,-0.0503,-0.0456,-0.0455,-0.0455,-0.0455,0,-0.049,-0.052,-0.0572,-0.0616,-0.0627,-0.0654,-0.0684,-0.0702,-0.0706,-0.0707,-0.0709,-0.0687,-0.0675,-0.0647,-0.0591,-0.06,-0.0548,-0.0505,-0.0501,-0.038,-0.034,-0.0419,-0.0451,-0.0451,-0.0451,-0.0452,-0.0452,0,-0.0493,-0.0548,-0.0593,-0.061,-0.0659,-0.0682,-0.0704,-0.0722,-0.0734,-0.0742,-0.0737,-0.0731,-0.0706,-0.0661,-0.0567,-0.0582,-0.0478,-0.0489,-0.0353,-0.0345,-0.0429,-0.0427,-0.0446,-0.0446,-0.0446,-0.0447,-0.0447,0,-0.0509,-0.0543,-0.0602,-0.0623,-0.0679,-0.0703,-0.0745,-0.0764,-0.0777,-0.0777,-0.0771,-0.0746,-0.0701,-0.0628,-0.0572,-0.0438,-0.0483,-0.0353,-0.0321,-0.0455,-0.0457,-0.0427,-0.0426,-0.0445,-0.0445,-0.0446,-0.0446,0,-0.0506,-0.0545,-0.0601,-0.0661,-0.0683,-0.0723,-0.077,-0.0787,-0.08,-0.0795,-0.0792,-0.0749,-0.0646,-0.0575,-0.0473,-0.0415,-0.0317,-0.0256,-0.0393,-0.037,-0.0212,-0.0214,-0.0136,-0.0132,-0.0128,-0.0126,-0.0123,0,-0.0512,-0.0541,-0.0623,-0.0659,-0.069,-0.0744,-0.0772,-0.0802,-0.0804,-0.0776,-0.0759,-0.0665,-0.0615,-0.0401,-0.0339,-0.0215,-0.0187,-0.0154,-0.0204,-0.0201,-0.0178,-0.0186,-0.0193,-0.0117,-0.0116,-0.0116,-0.0115,0,-0.0518,-0.0552,-0.0595,-0.0667,-0.0713,-0.0756,-0.0786,-0.0785,-0.0789,-0.0797,-0.069,-0.0587,-0.0451,-0.0339,-0.0212,-0.0134,-0.0195,-0.0118,-0.0126,-0.0173,-0.0177,-0.016,-0.0171,-0.0102,-0.0104,-0.0105,-0.0106,0,-0.0521,-0.0554,-0.061,-0.0672,-0.0727,-0.0747,-0.0767,-0.0738,-0.0737,-0.0692,-0.0644,-0.0523,-0.0463,-0.0291,-0.0186,-0.008,-0.0081,-0.0079,-0.009,-0.0103,-0.0098,-0.0099,0.0034,0,0,0,0,0,-0.0519,-0.0551,-0.0606,-0.0669,-0.0716,-0.0746,-0.0765,-0.077,-0.0759,-0.0667,-0.0653,-0.0516,-0.0328,-0.0262,-0.0135,-0.015,-0.0085,-0.0001,-0.0096,-0.0034,-0.0048,-0.0037,0,0,0,0,0,0,-0.0522,-0.0571,-0.0598,-0.0648,-0.0682,-0.0725,-0.0736,-0.0728,-0.067,-0.0642,-0.0538,-0.0486,-0.031,-0.0394,-0.0132,-0.0103,-0.0145,0.0078,0.0081,-0.0026,-0.0039,-0.005,-0.0044,0,0,0,0,0]}]]